UTC  calendar date,Angular Size (deg),Planetocentric sub-spacecraft Longitude (deg),Planetocentric sub-spacecraft Latitude (deg),Planetocentric Subsolar Longitude (deg),Planetocentric Subsolar Latitude (deg),Planetographic Sub-Spacecraft Longitude (deg),Planetographic Sub-Spacecraft  Latitude (deg),Planetographic Solar Longitude (deg),Planetographic Solar Latitude (deg),Sub-Point Radius (km),Observer Distance (km),Phase Angle (deg)
,,,,,,,,,,,,
,,,,,,,,,,,,
UTC calendar date,Angular Size (deg),Longitude (deg),Latitude (deg),Longitude (deg),Latitude (deg),Longitude (deg),Latitude (deg),Longitude (deg),Latitude (deg),Observer Distance (km),Observer Distance (km),Phase Angle (deg)
2020-09-15 21:10:00.000000 UTC,16.47724539,-172.5457886,15.5999269,37.31486273,-0.92227389,172.5457886,17.70760449,37.31486273,-0.92227389,427828.499,427828.499,146.2671939
2020-09-15 21:20:00.000000 UTC,16.88976751,-178.7527415,16.14176531,31.27006536,-0.92224738,178.7527415,18.31329034,31.27006536,-0.92224738,415755.5378,415755.5378,145.8577642
2020-09-15 21:30:00.000000 UTC,17.3285164,175.0308534,16.71252795,25.22526798,-0.92222087,184.9691466,18.95031452,25.22526798,-0.92222087,403550.0545,403550.0545,145.421099
2020-09-15 21:40:00.000000 UTC,17.79620741,168.8039913,17.31496333,19.18047061,-0.92219436,191.1960087,19.62155089,19.18047061,-0.92219436,391206.824,391206.824,144.9545133
2020-09-15 21:50:00.000000 UTC,18.29595178,162.5655099,17.95219954,13.13567323,-0.92216785,197.4344901,20.33025548,13.13567323,-0.92216785,378720.2791,378720.2791,144.4549541
2020-09-15 22:00:00.000000 UTC,18.83133215,156.3140561,18.62781377,7.09087586,-0.92214134,203.6859439,21.08013365,7.09087586,-0.92214134,366084.4823,366084.4823,143.9189342
2020-09-15 22:10:00.000000 UTC,19.40649614,150.0480439,19.34591785,1.04607849,-0.92211483,209.9519562,21.87542225,1.04607849,-0.92211483,353293.0969,353293.0969,143.3424518
2020-09-15 22:20:00.000000 UTC,20.02627304,143.7656,20.11126439,-4.99871889,-0.92208832,216.2344,22.72099051,-4.99871889,-0.92208832,340339.356,340339.356,142.7208897
2020-09-15 22:30:00.000000 UTC,20.69632093,137.4644939,20.92937923,-11.04351626,-0.92206181,222.5355062,23.62246504,-11.04351626,-0.92206181,327216.0314,327216.0314,142.0488926
2020-09-15 22:40:00.000000 UTC,21.42331343,131.1420451,21.80672855,-17.08831363,-0.9220353,228.8579549,24.58638579,-17.08831363,-0.9220353,313915.4034,313915.4034,141.3202104
2020-09-15 22:50:00.000000 UTC,22.21517957,124.7950002,22.75093132,-23.133111,-0.92200879,235.2049998,25.6204023,-23.133111,-0.92200879,300429.2326,300429.2326,140.5275029
2020-09-15 23:00:00.000000 UTC,23.08141471,118.4193655,23.77103221,-29.17790837,-0.92198227,241.5806345,26.73352278,-29.17790837,-0.92198227,286748.738,286748.738,139.6620882
2020-09-15 23:10:00.000000 UTC,24.03348873,112.0101777,24.87785561,-35.22270574,-0.92195576,247.9898224,27.9364332,-35.22270574,-0.92195576,272864.5858,272864.5858,138.71362
2020-09-15 23:20:00.000000 UTC,25.08538826,105.5611801,26.08447019,-41.26750311,-0.92192925,254.4388199,29.24190997,-41.26750311,-0.92192925,258766.898,258766.898,137.669667
2020-09-15 23:30:00.000000 UTC,26.25434719,99.06435985,27.40680537,-47.31230047,-0.92190274,260.9356402,30.6653591,-47.31230047,-0.92190274,244445.2919,244445.2919,136.5151574
2020-09-15 23:40:00.000000 UTC,27.56184538,92.50926591,28.8644794,-53.35709784,-0.92187623,267.4907341,32.22552787,-53.35709784,-0.92187623,229888.9735,229888.9735,135.2316396
2020-09-15 23:50:00.000000 UTC,29.03499668,85.88197796,30.48192573,-59.40189521,-0.92184972,274.118022,33.94545399,-59.40189521,-0.92184972,215086.9161,215086.9161,133.7962814
2020-09-16 00:00:00.000000 UTC,30.70851237,79.16349608,32.28994399,-65.44669257,-0.92182321,280.8365039,35.85374396,-65.44669257,-0.92182321,200028.1787,200028.1787,132.1804986
2020-09-16 00:10:00.000000 UTC,32.62753351,72.32712903,34.32786062,-71.49148994,-0.92179669,287.672871,37.98630918,-71.49148994,-0.92179669,184702.4539,184702.4539,130.348046
2020-09-16 00:20:00.000000 UTC,34.85180408,65.33406698,36.6465665,-77.5362873,-0.92177018,294.665933,40.38873528,-77.5362873,-0.92177018,169100.9928,169100.9928,128.2523202
2020-09-16 00:30:00.000000 UTC,37.46196275,58.12546846,39.3128016,-83.58108467,-0.92174367,301.8745315,43.11950641,-83.58108467,-0.92174367,153218.1605,153218.1605,125.8324855
2020-09-16 00:40:00.000000 UTC,40.56926449,50.60737506,42.41513558,-89.62588203,-0.92171716,309.3926249,46.25430123,-89.62588203,-0.92171716,137054.0617,137054.0617,123.0078196
2020-09-16 00:50:00.000000 UTC,44.33098723,42.6195564,46.07193286,-95.6706794,-0.92169064,317.3804436,49.89132419,-95.6706794,-0.92169064,120619.0148,120619.0148,119.6693355
2020-09-16 01:00:00.000000 UTC,48.97544775,33.86427263,50.44028304,-101.7154768,-0.92166413,326.1357274,54.15636203,-101.7154768,-0.92166413,103941.2852,103941.2852,115.6672019
2020-09-16 01:10:00.000000 UTC,54.84337692,23.72026901,55.71842204,-107.7602741,-0.92163762,336.279731,59.20065283,-107.7602741,-0.92163762,87080.70156,87080.70156,110.7916857
2020-09-16 01:20:00.000000 UTC,62.45637229,10.66402295,62.1022223,-113.8050715,-0.92161111,349.3359771,65.15778556,-113.8050715,-0.92161111,70153.1793,70153.1793,104.7442328
2020-09-16 01:30:00.000000 UTC,72.62401244,-9.94814591,69.46708364,-119.8498689,-0.92158459,9.94814591,71.8653495,-119.8498689,-0.92158459,53376.15706,53376.15706,97.09409148
2020-09-16 01:40:00.000000 UTC,86.57001613,-53.15602311,75.24671493,-125.8946662,-0.92155808,53.15602311,77.03201634,-125.8946662,-0.92155808,37156.08861,37156.08861,87.21619552
2020-09-16 01:50:00.000000 UTC,105.8412141,-112.8907737,69.79745017,-131.9394636,-0.92153157,112.8907737,72.16271858,-131.9394636,-0.92153157,22265.42557,22265.42557,74.22233039
2020-09-16 02:00:00.000000 UTC,130.6393669,-144.2129416,52.12730024,-137.9842609,-0.92150505,144.2129416,55.78118172,-137.9842609,-0.92150505,10203.24763,10203.24763,57.06593389
2020-09-16 02:10:00.000000 UTC,149.6343787,-161.5475553,28.00429537,-144.0290583,-0.92147854,161.5475553,31.30601003,-144.0290583,-0.92147854,3696.699301,3696.699301,36.38457861
2020-09-16 02:20:00.000000 UTC,135.1739004,-174.540432,2.59655698,-150.0738557,-0.92145203,174.540432,2.96870145,-150.0738557,-0.92145203,5852.483384,5852.483384,24.78885139
2020-09-16 02:30:00.000000 UTC,110.0052944,173.8987744,-18.52660685,-156.118653,-0.92142551,186.1012256,-20.96790256,-156.118653,-0.92142551,16305.36374,16305.36374,35.38952712
2020-09-16 02:40:00.000000 UTC,89.72865249,162.6820313,-34.09125499,-162.1634504,-0.921399,197.3179687,-37.73972208,-162.1634504,-0.921399,31456.90588,31456.90588,48.87869745
2020-09-16 02:50:00.000000 UTC,74.95946114,151.2884178,-45.45457448,-168.2082477,-0.92137249,208.7115822,-49.28164477,-168.2082477,-0.92137249,48536.38518,48536.38518,59.34898184
2020-09-16 03:00:00.000000 UTC,64.20874361,139.3923505,-53.9147082,-174.2530451,-0.92134597,220.6076496,-57.48968666,-174.2530451,-0.92134597,66225.53501,66225.53501,67.27465262
2020-09-16 03:10:00.000000 UTC,56.19105833,126.7460446,-60.31019571,179.7021575,-0.92131946,233.2539554,-63.50021567,179.7021575,-0.92131946,83956.31951,83956.31951,73.4334638
2020-09-16 03:20:00.000000 UTC,50.03824908,113.1587444,-65.15785873,173.6573602,-0.92129295,246.8412556,-67.9600292,173.6573602,-0.92129295,101484.7982,101484.7982,78.36250483
2020-09-16 03:30:00.000000 UTC,45.18842177,98.53138576,-68.78061356,167.6125628,-0.92126643,261.4686142,-71.24656698,167.6125628,-0.92126643,118708.3846,118708.3846,82.40945363
2020-09-16 03:40:00.000000 UTC,41.27488427,82.92838731,-71.39004223,161.5677655,-0.92123992,277.0716127,-73.59254103,161.5677655,-0.92123992,135588.7846,135588.7846,85.80326788
2020-09-16 03:50:00.000000 UTC,38.05266661,66.64419873,-73.14225602,155.5229681,-0.9212134,293.3558013,-75.15900757,155.5229681,-0.9212134,152117.9514,152117.9514,88.69954915
2020-09-16 04:00:00.000000 UTC,35.35364153,50.18787778,-74.17591853,149.4781707,-0.92118689,309.8121222,-76.08006654,149.4781707,-0.92118689,168302.2298,168302.2298,91.20746325
2020-09-16 04:10:00.000000 UTC,33.05932916,34.14218725,-74.63082688,143.4333734,-0.92116037,325.8578128,-76.48475004,143.4333734,-0.92116037,184154.6371,184154.6371,93.40583817
2020-09-16 04:20:00.000000 UTC,31.08416622,18.97264007,-74.64650579,137.388576,-0.92113386,341.0273599,-76.49869084,137.388576,-0.92113386,199690.9833,199690.9833,95.35305672
2020-09-16 04:30:00.000000 UTC,29.3649752,4.91994311,-74.34995257,131.3437787,-0.92110734,355.0800569,-76.23493319,131.3437787,-0.92110734,214927.8878,214927.8878,97.093327
2020-09-16 04:40:00.000000 UTC,27.85416988,-7.9827709,-73.84517296,125.2989813,-0.92108083,7.9827709,-75.78558444,125.2989813,-0.92108083,229881.7679,229881.7679,98.66077779
2020-09-16 04:50:00.000000 UTC,26.51526339,-19.82993571,-73.21025009,119.2541839,-0.92105431,19.82993571,-75.2196613,119.2541839,-0.92105431,244568.339,244568.339,100.0822078
2020-09-16 05:00:00.000000 UTC,25.31982936,-30.76807001,-72.50029814,113.2093866,-0.9210278,30.76807001,-74.58587473,113.2093866,-0.9210278,259002.3885,259002.3885,101.3789778
2020-09-16 05:10:00.000000 UTC,24.24540175,-40.94933929,-71.75265547,107.1645892,-0.92100128,40.94933929,-73.91726844,107.1645892,-0.92100128,273197.6972,273197.6972,102.5683421
2020-09-16 05:20:00.000000 UTC,23.27399474,-50.51032097,-70.99192084,101.1197919,-0.92097477,50.51032097,-73.23566982,101.1197919,-0.92097477,287167.0405,287167.0405,103.6644047
2020-09-16 05:30:00.000000 UTC,22.39104052,-59.56556244,-70.23394264,95.07499448,-0.92094825,59.56556244,-72.55520183,95.07499448,-0.92094825,300922.2288,300922.2288,104.678818
2020-09-16 05:40:00.000000 UTC,21.58461447,-68.20802821,-69.48869325,89.03019712,-0.92092174,68.20802821,-71.88480902,89.03019712,-0.92092174,314474.1692,314474.1692,105.6213017
2020-09-16 05:50:00.000000 UTC,20.84486136,-76.51206014,-68.76224456,82.98539976,-0.92089522,76.51206014,-71.22999266,82.98539976,-0.92089522,327832.9334,327832.9334,106.5000352
2020-09-16 06:00:00.000000 UTC,20.16356446,-84.53682455,-68.0580953,76.9406024,-0.9208687,84.53682455,-70.59397672,76.9406024,-0.9208687,341007.8269,341007.8269,107.3219555
2020-09-16 06:10:00.000000 UTC,19.53381785,-92.32945197,-67.37805454,70.89580504,-0.92084219,92.32945197,-69.97848426,70.89580504,-0.92084219,354007.4567,354007.4567,108.0929897
2020-09-16 06:20:00.000000 UTC,18.94977433,-99.92764016,-66.72282814,64.85100767,-0.92081567,99.92764016,-69.38425367,64.85100767,-0.92081567,366839.7931,366839.7931,108.8182352
2020-09-16 06:30:00.000000 UTC,18.40644928,-107.3617203,-66.09240865,58.80621031,-0.92078916,107.3617203,-68.8113822,58.80621031,-0.92078916,379512.2284,379512.2284,109.502103
2020-09-16 06:40:00.000000 UTC,17.89956665,-114.6562636,-65.48633496,52.76141295,-0.92076264,114.6562636,-68.25955552,52.76141295,-0.92076264,392031.6288,392031.6288,110.148432
2020-09-16 06:50:00.000000 UTC,17.42543675,-121.8313193,-64.90386572,46.71661558,-0.92073612,121.8313193,-67.72820129,46.71661558,-0.92073612,404404.3826,404404.3826,110.7605803
2020-09-16 07:00:00.000000 UTC,16.98085862,-128.9033674,-64.34409515,40.67181822,-0.92070961,128.9033674,-67.21659234,40.67181822,-0.92070961,416636.4426,416636.4426,111.3415
2020-09-16 07:10:00.000000 UTC,16.56304123,-135.8860516,-63.8060304,34.62702085,-0.92068309,135.8860516,-66.72391575,34.62702085,-0.92068309,428733.3654,428733.3654,111.8937983